QPF
0.14 0.07 0.06 0.09 0.08 0.09 0.09 0.11 0.13 0.11 0.10 0.10 0.08 0.07 0.05 0.03 0.03 0.05 0.06 0.05 0.07 0.06 0.08 0.12 0.12 0.09 0.05 0.04 0.03 0.02 0.02 0.02 0.01 0.02 0.02 0.02 0.02 0.02 0.02 0.02 0.04 0.05 0.04 0.02 0.02 0.03 0.03 0.03 0.05
0.05 0.06 0.09 0.07 0.06 0.10 0.09 0.07 0.12 0.10 0.06 0.05 0.05 0.04 0.03 0.03 0.02 0.03 0.06 0.07 0.09 0.08 0.08 0.08 0.08 0.06 0.03 0.03 0.02 0.01 0.01 0.01 0.01 0.01 0.02 0.02 0.03 0.02 0.02 0.02 0.03 0.03 0.02 0.01 0.01 0.02 0.03 0.04 0.05
0.03 0.06 0.06 0.04 0.07 0.07 0.10 0.10 0.10 0.09 0.08 0.06 0.04 0.04 0.03 0.03 0.03 0.03 0.04 0.07 0.06 0.06 0.05 0.07 0.07 0.05 0.03 0.02 0.02 0.01 0.01 0.01 0.01 0.02 0.02 0.02 0.03 0.02 0.02 0.01 0.01 0.01 0.01 0.01 0.01 0.02 0.02 0.04 0.05
0.03 0.04 0.03 0.04 0.05 0.05 0.06 0.10 0.10 0.08 0.08 0.06 0.04 0.05 0.03 0.04 0.03 0.03 0.03 0.04 0.04 0.04 0.05 0.06 0.06 0.04 0.03 0.02 0.01 0.01 0.01 0.01 0.02 0.02 0.02 0.03 0.02 0.01 0.01 0.01 0.01 0.01 0.01 0.01 0.01 0.02 0.03 0.04 0.06
0.04 0.03 0.03 0.04 0.05 0.05 0.05 0.07 0.11 0.08 0.09 0.09 0.06 0.05 0.05 0.06 0.04 0.03 0.03 0.02 0.02 0.01 0.03 0.06 0.06 0.06 0.03 0.01 0.01 0.01 0.02 0.01 0.02 0.02 0.02 0.02 0.01 0.01 0.01 0.00 0.01 0.01 0.01 0.01 0.02 0.03 0.04 0.07 0.09
0.04 0.02 0.03 0.04 0.06 0.07 0.08 0.08 0.10 0.12 0.09 0.08 0.06 0.04 0.06 0.05 0.03 0.02 0.01 0.02 0.02 0.01 0.02 0.03 0.05 0.05 0.03 0.01 0.02 0.01 0.01 0.01 0.01 0.01 0.02 0.02 0.02 0.01 0.01 0.01 0.02 0.02 0.02 0.02 0.02 0.04 0.08 0.12 0.11
0.03 0.02 0.03 0.05 0.09 0.09 0.10 0.08 0.11 0.15 0.13 0.07 0.05 0.05 0.06 0.06 0.03 0.01 0.01 0.02 0.02 0.01 0.01 0.02 0.04 0.03 0.03 0.02 0.01 0.01 0.00 0.00 0.01 0.01 0.02 0.02 0.02 0.02 0.02 0.02 0.02 0.02 0.01 0.03 0.03 0.07 0.13 0.10 0.10
0.03 0.02 0.02 0.04 0.08 0.11 0.07 0.06 0.07 0.08 0.08 0.06 0.04 0.04 0.04 0.03 0.02 0.01 0.01 0.01 0.02 0.01 0.01 0.01 0.04 0.04 0.02 0.02 0.01 0.01 0.00 0.00 0.00 0.00 0.01 0.02 0.02 0.02 0.02 0.02 0.02 0.03 0.03 0.04 0.06 0.10 0.08 0.08 0.10
0.04 0.02 0.03 0.05 0.08 0.14 0.05 0.03 0.05 0.05 0.04 0.03 0.02 0.02 0.02 0.03 0.02 0.01 0.01 0.01 0.01 0.00 0.00 0.00 0.01 0.01 0.01 0.01 0.01 0.01 0.01 0.01 0.01 0.01 0.01 0.02 0.01 0.01 0.01 0.02 0.02 0.02 0.05 0.05 0.06 0.08 0.08 0.05 0.05
0.02 0.01 0.03 0.05 0.07 0.12 0.05 0.02 0.02 0.03 0.02 0.02 0.01 0.02 0.03 0.03 0.02 0.02 0.01 0.00 0.00 0.00 0.00 0.00 0.00 0.00 0.00 0.01 0.01 0.01 0.01 0.01 0.00 0.01 0.01 0.01 0.01 0.00 0.00 0.01 0.02 0.02 0.03 0.03 0.03 0.04 0.02 0.01 0.01
0.02 0.02 0.04 0.04 0.06 0.08 0.05 0.02 0.01 0.02 0.02 0.01 0.01 0.01 0.02 0.02 0.02 0.02 0.01 0.00 0.00 0.00 0.00 0.00 0.00 0.00 0.00 0.00 0.00 0.01 0.01 0.01 0.01 0.00 0.01 0.01 0.01 0.01 0.00 0.00 0.00 0.00 0.00 0.00 0.01 0.01 0.00 0.00 0.00
0.03 0.04 0.05 0.05 0.06 0.07 0.05 0.02 0.02 0.02 0.01 0.01 0.02 0.03 0.02 0.02 0.01 0.01 0.00 0.00 0.00 0.00 0.00 0.00 0.00 0.00 0.00 0.00 0.00 0.01 0.01 0.01 0.01 0.00 0.00 0.01 0.01 0.01 0.00 0.00 0.00 0.00 0.00 0.00 0.00 0.00 0.00 0.00 0.00
0.04 0.05 0.05 0.05 0.05 0.07 0.07 0.04 0.02 0.02 0.01 0.02 0.03 0.04 0.04 0.02 0.01 0.01 0.01 0.00 0.00 0.00 0.00 0.00 0.00 0.00 0.00 0.00 0.01 0.02 0.03 0.02 0.01 0.01 0.01 0.01 0.01 0.01 0.00 0.00 0.00 0.00 0.00 0.00 0.00 0.00 0.00 0.00 0.01
0.05 0.04 0.03 0.04 0.04 0.05 0.09 0.06 0.03 0.02 0.01 0.02 0.02 0.03 0.03 0.02 0.01 0.02 0.01 0.00 0.00 0.00 0.00 0.00 0.00 0.00 0.00 0.01 0.01 0.02 0.02 0.04 0.04 0.03 0.02 0.02 0.01 0.01 0.01 0.00 0.00 0.00 0.00 0.00 0.00 0.00 0.00 0.01 0.01
0.06 0.03 0.03 0.03 0.02 0.03 0.07 0.07 0.06 0.03 0.01 0.02 0.03 0.03 0.03 0.02 0.01 0.01 0.00 0.00 0.00 0.00 0.01 0.00 0.00 0.00 0.00 0.01 0.03 0.02 0.01 0.03 0.03 0.02 0.02 0.02 0.03 0.02 0.01 0.00 0.00 0.00 0.00 0.00 0.00 0.00 0.00 0.00 0.01
0.09 0.05 0.03 0.03 0.01 0.02 0.05 0.08 0.10 0.04 0.03 0.04 0.04 0.03 0.02 0.02 0.01 0.01 0.01 0.01 0.01 0.01 0.01 0.01 0.00 0.00 0.00 0.00 0.01 0.01 0.01 0.03 0.03 0.03 0.02 0.02 0.02 0.02 0.01 0.00 0.01 0.00 0.00 0.00 0.00 0.00 0.00 0.00 0.00
0.05 0.04 0.03 0.03 0.02 0.02 0.03 0.06 0.11 0.06 0.05 0.04 0.03 0.02 0.02 0.02 0.02 0.01 0.00 0.00 0.01 0.02 0.02 0.02 0.02 0.01 0.00 0.00 0.00 0.00 0.01 0.02 0.02 0.02 0.02 0.01 0.01 0.01 0.01 0.00 0.00 0.00 0.00 0.00 0.00 0.00 0.00 0.00 0.00
0.04 0.05 0.04 0.04 0.04 0.03 0.02 0.03 0.07 0.07 0.06 0.03 0.03 0.02 0.02 0.01 0.01 0.01 0.00 0.00 0.01 0.02 0.02 0.02 0.02 0.02 0.01 0.01 0.00 0.00 0.00 0.00 0.00 0.00 0.00 0.00 0.00 0.01 0.00 0.00 0.00 0.00 0.00 0.00 0.00 0.00 0.00 0.00 0.00
0.04 0.04 0.04 0.04 0.06 0.06 0.03 0.02 0.04 0.05 0.05 0.02 0.02 0.02 0.01 0.01 0.00 0.01 0.01 0.01 0.01 0.01 0.01 0.01 0.01 0.02 0.01 0.01 0.00 0.00 0.00 0.00 0.00 0.00 0.00 0.00 0.00 0.00 0.00 0.00 0.00 0.00 0.00 0.00 0.00 0.00 0.00 0.00 0.00
0.04 0.03 0.03 0.04 0.06 0.05 0.05 0.03 0.03 0.03 0.04 0.03 0.01 0.01 0.01 0.00 0.00 0.00 0.00 0.00 0.01 0.01 0.01 0.00 0.00 0.00 0.00 0.00 0.00 0.00 0.00 0.00 0.00 0.00 0.00 0.00 0.00 0.00 0.00 0.00 0.00 0.00 0.00 0.00 0.00 0.00 0.00 0.00 0.00
0.04 0.04 0.05 0.05 0.04 0.04 0.05 0.06 0.04 0.03 0.03 0.03 0.02 0.01 0.01 0.00 0.00 0.00 0.00 0.00 0.00 0.00 0.00 0.01 0.01 0.00 0.00 0.01 0.00 0.00 0.00 0.00 0.00 0.00 0.00 0.00 0.00 0.00 0.00 0.00 0.00 0.00 0.00 0.00 0.00 0.00 0.00 0.00 0.00
0.03 0.03 0.03 0.03 0.03 0.04 0.03 0.03 0.02 0.02 0.02 0.02 0.02 0.01 0.01 0.00 0.00 0.00 0.00 0.00 0.00 0.00 0.00 0.00 0.00 0.00 0.00 0.00 0.00 0.00 0.00 0.00 0.00 0.00 0.00 0.00 0.00 0.00 0.00 0.00 0.00 0.00 0.00 0.00 0.00 0.00 0.00 0.00 0.00
0.03 0.02 0.03 0.03 0.02 0.02 0.02 0.01 0.01 0.01 0.01 0.01 0.01 0.01 0.00 0.00 0.00 0.00 0.00 0.00 0.00 0.00 0.00 0.00 0.00 0.00 0.01 0.01 0.01 0.00 0.00 0.00 0.00 0.00 0.00 0.00 0.00 0.00 0.00 0.00 0.00 0.00 0.00 0.00 0.00 0.00 0.00 0.00 0.00
0.02 0.03 0.03 0.02 0.02 0.03 0.01 0.01 0.00 0.00 0.00 0.00 0.00 0.00 0.00 0.00 0.00 0.00 0.00 0.01 0.00 0.00 0.00 0.00 0.00 0.00 0.00 0.00 0.00 0.00 0.00 0.00 0.00 0.00 0.00 0.00 0.00 0.00 0.00 0.00 0.00 0.00 0.00 0.00 0.00 0.00 0.00 0.00 0.00
0.03 0.02 0.03 0.03 0.03 0.03 0.01 0.01 0.00 0.00 0.00 0.00 0.00 0.00 0.00 0.01 0.01 0.00 0.00 0.00 0.00 0.00 0.00 0.00 0.00 0.00 0.00 0.00 0.00 0.00 0.00 0.00 0.00 0.00 0.00 0.00 0.00 0.00 0.00 0.00 0.00 0.00 0.00 0.00 0.00 0.00 0.00 0.00 0.00
0.03 0.03 0.02 0.02 0.04 0.03 0.01 0.01 0.00 0.00 0.00 0.00 0.00 0.00 0.00 0.01 0.02 0.00 0.00 0.00 0.00 0.00 0.00 0.00 0.00 0.00 0.00 0.00 0.00 0.00 0.00 0.00 0.00 0.00 0.00 0.00 0.00 0.00 0.00 0.00 0.00 0.00 0.00 0.00 0.00 0.00 0.00 0.00 0.00
0.03 0.03 0.02 0.02 0.02 0.02 0.01 0.01 0.00 0.00 0.00 0.00 0.00 0.01 0.01 0.01 0.02 0.01 0.00 0.00 0.00 0.00 0.00 0.00 0.00 0.01 0.01 0.00 0.00 0.00 0.00 0.00 0.00 0.00 0.00 0.00 0.00 0.00 0.00 0.00 0.00 0.00 0.00 0.00 0.00 0.00 0.00 0.00 0.00
0.02 0.02 0.02 0.03 0.02 0.02 0.01 0.01 0.01 0.00 0.00 0.00 0.01 0.01 0.01 0.01 0.01 0.01 0.00 0.00 0.00 0.00 0.00 0.00 0.01 0.01 0.01 0.01 0.00 0.00 0.00 0.00 0.01 0.00 0.00 0.00 0.00 0.00 0.00 0.00 0.00 0.00 0.00 0.00 0.00 0.00 0.00 0.00 0.00
0.01 0.02 0.02 0.02 0.03 0.03 0.02 0.01 0.01 0.00 0.00 0.00 0.01 0.00 0.00 0.01 0.00 0.01 0.01 0.00 0.00 0.00 0.00 0.01 0.01 0.01 0.01 0.01 0.00 0.00 0.01 0.00 0.01 0.01 0.00 0.00 0.00 0.00 0.00 0.01 0.01 0.01 0.00 0.00 0.00 0.00 0.00 0.00 0.00
0.02 0.02 0.02 0.03 0.03 0.04 0.03 0.02 0.01 0.00 0.00 0.00 0.01 0.01 0.01 0.01 0.00 0.01 0.01 0.00 0.00 0.00 0.00 0.00 0.01 0.01 0.01 0.01 0.00 0.00 0.00 0.00 0.00 0.00 0.00 0.00 0.00 0.00 0.01 0.01 0.01 0.01 0.01 0.01 0.01 0.01 0.00 0.00 0.00
MSLP
1011.03 1011.91 1012.99 1014.11 1015.12 1015.89 1016.38 1016.57 1016.54 1016.40 1016.25 1016.20 1016.27 1016.47 1016.73 1016.99 1017.15 1017.15 1016.99 1016.67 1016.28 1015.88 1015.54 1015.33 1015.27 1015.35 1015.52 1015.72 1015.91 1016.05 1016.10 1016.09 1016.03 1015.97 1015.91 1015.90 1015.92 1015.98 1016.04 1016.10 1016.13 1016.12 1016.10 1016.05 1015.99 1015.94 1015.89 1015.84 1015.78
1011.43 1012.47 1013.66 1014.83 1015.82 1016.52 1016.87 1016.91 1016.72 1016.43 1016.16 1016.01 1016.01 1016.18 1016.43 1016.70 1016.90 1016.96 1016.87 1016.66 1016.36 1016.05 1015.80 1015.65 1015.63 1015.71 1015.86 1016.03 1016.18 1016.29 1016.33 1016.31 1016.27 1016.22 1016.18 1016.17 1016.18 1016.20 1016.22 1016.23 1016.23 1016.22 1016.20 1016.18 1016.17 1016.15 1016.14 1016.11 1016.06
1011.91 1013.06 1014.30 1015.45 1016.37 1016.95 1017.18 1017.09 1016.79 1016.41 1016.08 1015.90 1015.89 1016.04 1016.29 1016.57 1016.78 1016.87 1016.84 1016.69 1016.47 1016.25 1016.08 1015.99 1016.00 1016.09 1016.22 1016.35 1016.46 1016.53 1016.55 1016.53 1016.50 1016.46 1016.43 1016.41 1016.39 1016.37 1016.35 1016.32 1016.29 1016.26 1016.26 1016.28 1016.31 1016.36 1016.40 1016.42 1016.40
1012.45 1013.64 1014.86 1015.93 1016.73 1017.18 1017.29 1017.11 1016.76 1016.37 1016.06 1015.90 1015.92 1016.10 1016.36 1016.62 1016.83 1016.93 1016.91 1016.80 1016.64 1016.50 1016.39 1016.36 1016.39 1016.48 1016.58 1016.68 1016.74 1016.77 1016.76 1016.74 1016.70 1016.68 1016.65 1016.62 1016.59 1016.53 1016.46 1016.39 1016.33 1016.29 1016.30 1016.36 1016.45 1016.56 1016.67 1016.74 1016.77
1013.02 1014.19 1015.31 1016.25 1016.90 1017.22 1017.22 1017.00 1016.66 1016.32 1016.10 1016.03 1016.12 1016.34 1016.62 1016.87 1017.05 1017.13 1017.10 1017.01 1016.89 1016.80 1016.75 1016.76 1016.81 1016.89 1016.97 1017.01 1017.02 1017.00 1016.96 1016.92 1016.89 1016.87 1016.85 1016.83 1016.78 1016.70 1016.60 1016.49 1016.40 1016.35 1016.36 1016.44 1016.58 1016.75 1016.91 1017.05 1017.13
1013.59 1014.68 1015.66 1016.43 1016.90 1017.08 1017.01 1016.79 1016.51 1016.29 1016.20 1016.26 1016.46 1016.74 1017.03 1017.27 1017.41 1017.45 1017.40 1017.30 1017.21 1017.15 1017.14 1017.18 1017.25 1017.32 1017.35 1017.34 1017.29 1017.21 1017.14 1017.08 1017.05 1017.04 1017.05 1017.04 1016.99 1016.90 1016.78 1016.64 1016.52 1016.45 1016.46 1016.54 1016.70 1016.89 1017.10 1017.28 1017.40
1014.16 1015.12 1015.92 1016.49 1016.79 1016.85 1016.73 1016.53 1016.35 1016.28 1016.35 1016.56 1016.88 1017.22 1017.53 1017.75 1017.84 1017.83 1017.75 1017.65 1017.56 1017.53 1017.55 1017.61 1017.68 1017.73 1017.72 1017.66 1017.54 1017.42 1017.30 1017.22 1017.20 1017.21 1017.24 1017.25 1017.23 1017.15 1017.01 1016.86 1016.71 1016.61 1016.59 1016.65 1016.79 1016.99 1017.20 1017.40 1017.56
1014.70 1015.50 1016.11 1016.49 1016.63 1016.59 1016.44 1016.29 1016.23 1016.31 1016.54 1016.89 1017.30 1017.70 1018.02 1018.21 1018.27 1018.22 1018.10 1017.99 1017.91 1017.90 1017.94 1018.02 1018.09 1018.11 1018.06 1017.95 1017.79 1017.61 1017.46 1017.37 1017.35 1017.38 1017.44 1017.48 1017.48 1017.42 1017.29 1017.13 1016.95 1016.82 1016.75 1016.77 1016.87 1017.03 1017.23 1017.42 1017.59
1015.19 1015.83 1016.26 1016.47 1016.49 1016.37 1016.23 1016.14 1016.18 1016.39 1016.75 1017.21 1017.69 1018.12 1018.44 1018.60 1018.62 1018.54 1018.41 1018.29 1018.22 1018.23 1018.29 1018.38 1018.45 1018.45 1018.38 1018.22 1018.02 1017.81 1017.64 1017.54 1017.52 1017.57 1017.65 1017.72 1017.75 1017.71 1017.60 1017.43 1017.24 1017.07 1016.96 1016.92 1016.97 1017.08 1017.23 1017.41 1017.58
1015.62 1016.12 1016.42 1016.50 1016.43 1016.28 1016.15 1016.12 1016.25 1016.55 1016.99 1017.50 1018.01 1018.44 1018.74 1018.87 1018.87 1018.77 1018.63 1018.52 1018.48 1018.51 1018.59 1018.69 1018.75 1018.75 1018.65 1018.48 1018.26 1018.03 1017.85 1017.74 1017.73 1017.78 1017.88 1017.98 1018.03 1018.01 1017.91 1017.75 1017.56 1017.37 1017.22 1017.13 1017.12 1017.18 1017.29 1017.43 1017.59
1015.99 1016.40 1016.60 1016.61 1016.51 1016.36 1016.26 1016.28 1016.46 1016.80 1017.26 1017.77 1018.26 1018.66 1018.91 1019.02 1019.00 1018.90 1018.78 1018.70 1018.67 1018.72 1018.82 1018.93 1019.00 1018.99 1018.90 1018.73 1018.52 1018.30 1018.12 1018.01 1017.99 1018.04 1018.14 1018.24 1018.30 1018.30 1018.22 1018.08 1017.89 1017.71 1017.55 1017.43 1017.38 1017.40 1017.47 1017.58 1017.72
1016.33 1016.68 1016.84 1016.85 1016.76 1016.65 1016.60 1016.65 1016.84 1017.17 1017.58 1018.04 1018.46 1018.79 1019.00 1019.08 1019.05 1018.97 1018.88 1018.83 1018.83 1018.90 1019.01 1019.12 1019.20 1019.21 1019.14 1019.00 1018.81 1018.62 1018.45 1018.35 1018.32 1018.35 1018.42 1018.50 1018.55 1018.55 1018.50 1018.38 1018.23 1018.08 1017.93 1017.83 1017.77 1017.77 1017.82 1017.92 1018.04
1016.65 1016.99 1017.17 1017.22 1017.20 1017.16 1017.15 1017.22 1017.39 1017.66 1017.98 1018.33 1018.64 1018.88 1019.04 1019.10 1019.08 1019.03 1018.98 1018.96 1018.99 1019.07 1019.18 1019.29 1019.37 1019.40 1019.37 1019.27 1019.14 1018.99 1018.86 1018.76 1018.71 1018.71 1018.74 1018.77 1018.79 1018.78 1018.74 1018.66 1018.56 1018.46 1018.37 1018.30 1018.27 1018.28 1018.34 1018.43 1018.55
1017.00 1017.36 1017.60 1017.74 1017.81 1017.85 1017.90 1017.98 1018.10 1018.26 1018.46 1018.66 1018.84 1018.99 1019.09 1019.13 1019.14 1019.13 1019.12 1019.13 1019.17 1019.25 1019.35 1019.45 1019.54 1019.59 1019.60 1019.57 1019.50 1019.42 1019.32 1019.24 1019.17 1019.11 1019.08 1019.04 1019.01 1018.98 1018.94 1018.90 1018.86 1018.82 1018.81 1018.81 1018.83 1018.88 1018.96 1019.06 1019.18
1017.37 1017.78 1018.10 1018.36 1018.55 1018.69 1018.78 1018.85 1018.90 1018.95 1018.99 1019.04 1019.09 1019.14 1019.19 1019.24 1019.27 1019.31 1019.34 1019.38 1019.42 1019.48 1019.55 1019.63 1019.70 1019.78 1019.83 1019.87 1019.88 1019.87 1019.82 1019.75 1019.66 1019.55 1019.43 1019.32 1019.23 1019.15 1019.11 1019.09 1019.11 1019.15 1019.21 1019.29 1019.38 1019.48 1019.59 1019.71 1019.83
1017.80 1018.25 1018.68 1019.05 1019.36 1019.59 1019.73 1019.77 1019.75 1019.67 1019.56 1019.46 1019.38 1019.35 1019.37 1019.42 1019.49 1019.58 1019.65 1019.70 1019.74 1019.76 1019.79 1019.82 1019.88 1019.96 1020.06 1020.17 1020.26 1020.32 1020.32 1020.27 1020.15 1019.99 1019.80 1019.61 1019.44 1019.32 1019.26 1019.26 1019.32 1019.42 1019.56 1019.71 1019.86 1020.00 1020.15 1020.28 1020.40
1018.25 1018.76 1019.27 1019.76 1020.17 1020.48 1020.65 1020.67 1020.56 1020.35 1020.11 1019.87 1019.69 1019.60 1019.60 1019.67 1019.79 1019.92 1020.03 1020.10 1020.11 1020.09 1020.06 1020.04 1020.07 1020.15 1020.28 1020.45 1020.61 1020.73 1020.79 1020.76 1020.63 1020.43 1020.18 1019.92 1019.68 1019.51 1019.42 1019.43 1019.51 1019.65 1019.83 1020.03 1020.22 1020.40 1020.56 1020.71 1020.83
1018.72 1019.27 1019.85 1020.43 1020.93 1021.29 1021.48 1021.46 1021.28 1020.96 1020.59 1020.24 1019.98 1019.85 1019.85 1019.96 1020.13 1020.31 1020.45 1020.52 1020.52 1020.45 1020.35 1020.28 1020.26 1020.33 1020.48 1020.68 1020.90 1021.09 1021.20 1021.20 1021.07 1020.85 1020.56 1020.24 1019.96 1019.75 1019.64 1019.63 1019.72 1019.87 1020.07 1020.28 1020.48 1020.67 1020.83 1020.97 1021.10
1019.17 1019.74 1020.38 1021.02 1021.58 1021.98 1022.17 1022.12 1021.86 1021.44 1020.98 1020.54 1020.22 1020.07 1020.08 1020.22 1020.45 1020.69 1020.86 1020.94 1020.91 1020.80 1020.65 1020.51 1020.46 1020.50 1020.65 1020.88 1021.14 1021.37 1021.53 1021.56 1021.45 1021.23 1020.92 1020.59 1020.29 1020.06 1019.92 1019.90 1019.98 1020.12 1020.30 1020.49 1020.68 1020.84 1020.99 1021.12 1021.24
1019.57 1020.15 1020.83 1021.51 1022.11 1022.53 1022.70 1022.61 1022.29 1021.80 1021.25 1020.75 1020.39 1020.22 1020.25 1020.44 1020.71 1021.00 1021.21 1021.30 1021.26 1021.12 1020.92 1020.74 1020.64 1020.65 1020.78 1021.02 1021.30 1021.57 1021.76 1021.82 1021.75 1021.55 1021.27 1020.96 1020.66 1020.43 1020.30 1020.27 1020.32 1020.43 1020.58 1020.73 1020.86 1020.99 1021.10 1021.21 1021.32
1019.92 1020.51 1021.20 1021.91 1022.52 1022.94 1023.10 1022.97 1022.58 1022.03 1021.41 1020.87 1020.47 1020.30 1020.34 1020.56 1020.88 1021.21 1021.45 1021.57 1021.53 1021.38 1021.16 1020.94 1020.80 1020.78 1020.89 1021.11 1021.39 1021.67 1021.88 1021.99 1021.96 1021.81 1021.58 1021.31 1021.06 1020.87 1020.75 1020.72 1020.75 1020.83 1020.92 1021.01 1021.09 1021.16 1021.23 1021.31 1021.40
1020.21 1020.81 1021.51 1022.23 1022.85 1023.25 1023.38 1023.22 1022.78 1022.17 1021.51 1020.92 1020.50 1020.30 1020.35 1020.58 1020.93 1021.29 1021.57 1021.72 1021.71 1021.56 1021.34 1021.11 1020.94 1020.89 1020.97 1021.16 1021.42 1021.69 1021.92 1022.05 1022.06 1021.98 1021.82 1021.62 1021.44 1021.30 1021.22 1021.21 1021.23 1021.28 1021.33 1021.36 1021.37 1021.39 1021.41 1021.46 1021.54
1020.47 1021.08 1021.79 1022.51 1023.12 1023.51 1023.62 1023.41 1022.94 1022.29 1021.58 1020.95 1020.49 1020.27 1020.30 1020.54 1020.89 1021.27 1021.59 1021.77 1021.79 1021.68 1021.47 1021.25 1021.07 1021.00 1021.04 1021.19 1021.41 1021.66 1021.87 1022.02 1022.08 1022.05 1021.97 1021.86 1021.76 1021.69 1021.67 1021.68 1021.70 1021.73 1021.74 1021.72 1021.69 1021.66 1021.64 1021.66 1021.73
1020.72 1021.34 1022.06 1022.78 1023.38 1023.75 1023.83 1023.60 1023.10 1022.41 1021.67 1021.00 1020.51 1020.25 1020.25 1020.46 1020.80 1021.19 1021.52 1021.74 1021.81 1021.74 1021.57 1021.37 1021.20 1021.11 1021.12 1021.22 1021.39 1021.59 1021.78 1021.92 1022.01 1022.03 1022.02 1022.00 1021.98 1021.98 1022.01 1022.05 1022.09 1022.11 1022.10 1022.06 1021.99 1021.93 1021.89 1021.89 1021.95
1020.97 1021.60 1022.33 1023.04 1023.63 1024.00 1024.06 1023.82 1023.30 1022.59 1021.82 1021.12 1020.59 1020.29 1020.24 1020.40 1020.72 1021.10 1021.44 1021.69 1021.80 1021.79 1021.67 1021.51 1021.36 1021.25 1021.23 1021.28 1021.39 1021.54 1021.68 1021.81 1021.90 1021.95 1021.99 1022.03 1022.07 1022.14 1022.21 1022.29 1022.35 1022.37 1022.36 1022.31 1022.23 1022.16 1022.11 1022.10 1022.15
1021.20 1021.85 1022.59 1023.31 1023.89 1024.24 1024.30 1024.05 1023.54 1022.83 1022.06 1021.34 1020.77 1020.43 1020.33 1020.44 1020.72 1021.07 1021.41 1021.68 1021.84 1021.88 1021.82 1021.70 1021.57 1021.46 1021.41 1021.41 1021.46 1021.54 1021.63 1021.72 1021.79 1021.85 1021.91 1021.99 1022.07 1022.17 1022.28 1022.38 1022.46 1022.49 1022.49 1022.44 1022.38 1022.31 1022.27 1022.27 1022.31
1021.41 1022.08 1022.83 1023.54 1024.12 1024.47 1024.54 1024.31 1023.81 1023.13 1022.38 1021.67 1021.09 1020.72 1020.57 1020.63 1020.86 1021.18 1021.50 1021.78 1021.97 1022.06 1022.05 1021.97 1021.87 1021.77 1021.69 1021.65 1021.63 1021.65 1021.68 1021.72 1021.76 1021.80 1021.86 1021.94 1022.04 1022.15 1022.27 1022.37 1022.46 1022.50 1022.51 1022.49 1022.45 1022.41 1022.38 1022.39 1022.43
1021.57 1022.26 1023.01 1023.72 1024.30 1024.66 1024.74 1024.55 1024.11 1023.49 1022.79 1022.11 1021.56 1021.18 1021.00 1021.02 1021.20 1021.48 1021.78 1022.05 1022.26 1022.38 1022.41 1022.38 1022.30 1022.20 1022.11 1022.03 1021.97 1021.92 1021.89 1021.88 1021.87 1021.88 1021.92 1021.97 1022.06 1022.15 1022.26 1022.35 1022.43 1022.48 1022.50 1022.50 1022.49 1022.48 1022.48 1022.50 1022.54
1021.67 1022.38 1023.13 1023.83 1024.40 1024.77 1024.89 1024.76 1024.40 1023.87 1023.26 1022.67 1022.17 1021.81 1021.64 1021.63 1021.77 1022.00 1022.27 1022.53 1022.74 1022.88 1022.94 1022.94 1022.88 1022.80 1022.69 1022.59 1022.49 1022.40 1022.32 1022.25 1022.21 1022.18 1022.17 1022.19 1022.24 1022.30 1022.37 1022.43 1022.49 1022.54 1022.57 1022.59 1022.60 1022.62 1022.64 1022.67 1022.70
1021.73 1022.43 1023.16 1023.85 1024.42 1024.80 1024.97 1024.92 1024.66 1024.26 1023.79 1023.31 1022.90 1022.60 1022.45 1022.44 1022.56 1022.75 1022.99 1023.22 1023.42 1023.56 1023.64 1023.66 1023.62 1023.55 1023.45 1023.33 1023.21 1023.09 1022.98 1022.88 1022.79 1022.72 1022.68 1022.66 1022.66 1022.67 1022.69 1022.72 1022.75 1022.77 1022.80 1022.82 1022.85 1022.88 1022.91 1022.94 1022.95
Thickness
5788 5788 5786 5774 5754 5737 5732 5739 5746 5746 5749 5754 5758 5756 5749 5744 5741 5738 5754 5763 5764 5764 5764 5764 5764 5763 5762 5761 5760 5759 5758 5756 5755 5755 5754 5753 5753 5752 5751 5751 5750 5750 5749 5749 5749 5749 5749 5749 5749
5786 5785 5776 5761 5740 5724 5728 5740 5743 5748 5754 5758 5758 5754 5748 5745 5751 5752 5757 5762 5764 5763 5763 5763 5762 5762 5761 5759 5758 5757 5756 5755 5754 5753 5752 5752 5751 5750 5749 5749 5748 5747 5747 5747 5747 5747 5747 5747 5747
5785 5782 5764 5748 5734 5726 5731 5742 5745 5752 5758 5758 5752 5751 5748 5745 5752 5754 5759 5762 5762 5761 5761 5761 5760 5760 5759 5758 5756 5755 5754 5753 5752 5751 5751 5750 5749 5748 5747 5747 5746 5745 5745 5744 5744 5744 5744 5744 5745
5778 5767 5755 5740 5733 5737 5742 5745 5750 5751 5754 5756 5751 5745 5748 5754 5755 5757 5760 5761 5760 5759 5759 5759 5758 5757 5757 5756 5755 5754 5753 5752 5751 5750 5749 5748 5747 5746 5746 5745 5744 5744 5743 5742 5742 5742 5742 5742 5742
5770 5754 5739 5729 5733 5741 5746 5750 5752 5749 5749 5749 5748 5741 5742 5752 5757 5758 5759 5759 5757 5757 5757 5756 5756 5755 5754 5753 5753 5752 5751 5750 5749 5748 5747 5747 5746 5745 5744 5743 5742 5742 5741 5740 5740 5740 5740 5739 5739
5753 5745 5726 5722 5731 5740 5745 5750 5750 5746 5746 5748 5746 5740 5740 5750 5753 5754 5756 5756 5756 5755 5755 5754 5753 5753 5752 5751 5751 5750 5749 5749 5748 5747 5746 5745 5744 5743 5742 5741 5740 5740 5739 5739 5738 5737 5737 5737 5736
5745 5734 5725 5726 5728 5735 5743 5749 5746 5743 5743 5745 5747 5737 5738 5746 5751 5753 5754 5753 5753 5753 5752 5751 5751 5750 5750 5749 5749 5748 5748 5747 5747 5746 5745 5744 5742 5741 5741 5740 5739 5738 5738 5737 5736 5735 5734 5734 5734
5749 5735 5725 5725 5727 5732 5743 5747 5748 5746 5743 5750 5750 5737 5735 5744 5750 5750 5750 5750 5750 5750 5749 5749 5748 5748 5747 5747 5747 5746 5746 5745 5745 5744 5743 5742 5741 5740 5739 5738 5737 5737 5736 5735 5734 5733 5732 5732 5731
5750 5726 5717 5724 5728 5733 5742 5742 5745 5751 5746 5746 5748 5746 5747 5749 5748 5746 5744 5744 5745 5746 5747 5747 5746 5746 5745 5745 5744 5744 5744 5743 5743 5742 5741 5740 5739 5738 5737 5736 5735 5735 5734 5733 5731 5731 5730 5730 5729
5737 5719 5725 5735 5738 5737 5739 5740 5742 5741 5738 5738 5740 5744 5746 5745 5743 5741 5740 5739 5741 5742 5744 5745 5744 5744 5743 5743 5742 5742 5742 5741 5741 5741 5740 5738 5737 5736 5735 5734 5733 5732 5731 5730 5729 5728 5727 5727 5726
5734 5725 5732 5737 5742 5742 5738 5738 5743 5737 5731 5736 5738 5739 5741 5740 5739 5738 5738 5739 5739 5741 5742 5743 5742 5742 5741 5740 5740 5740 5740 5739 5739 5739 5738 5737 5736 5734 5733 5732 5731 5730 5729 5728 5727 5726 5725 5723 5722
5729 5730 5735 5737 5742 5740 5737 5737 5736 5736 5737 5744 5744 5742 5740 5737 5736 5737 5737 5737 5739 5739 5740 5741 5741 5740 5739 5738 5738 5738 5737 5737 5737 5737 5736 5736 5734 5732 5731 5730 5729 5728 5727 5726 5724 5723 5722 5721 5720
5724 5726 5733 5736 5738 5737 5736 5734 5733 5734 5739 5742 5741 5738 5736 5735 5735 5737 5738 5738 5738 5738 5739 5740 5740 5738 5737 5737 5736 5735 5735 5735 5735 5735 5735 5734 5732 5730 5729 5728 5727 5726 5725 5723 5722 5720 5719 5718 5717
5723 5725 5727 5730 5732 5733 5729 5729 5730 5730 5735 5735 5735 5733 5734 5733 5734 5734 5735 5735 5736 5737 5738 5738 5738 5737 5736 5735 5734 5733 5733 5733 5733 5733 5732 5732 5731 5729 5727 5726 5725 5723 5722 5721 5720 5718 5717 5715 5714
5724 5718 5718 5722 5727 5727 5727 5718 5723 5729 5731 5729 5729 5730 5730 5731 5732 5733 5734 5735 5735 5736 5737 5736 5736 5735 5734 5733 5732 5731 5731 5731 5731 5730 5730 5730 5729 5727 5726 5724 5723 5721 5720 5719 5717 5716 5714 5713 5711
5715 5706 5700 5713 5721 5724 5718 5705 5720 5726 5726 5722 5724 5725 5727 5729 5731 5733 5735 5735 5735 5735 5734 5735 5735 5733 5732 5730 5729 5729 5728 5728 5728 5728 5728 5727 5726 5725 5724 5722 5720 5719 5718 5716 5714 5713 5710 5708 5707
5698 5691 5694 5704 5716 5718 5713 5706 5718 5723 5722 5719 5720 5721 5723 5725 5729 5732 5734 5734 5734 5734 5733 5732 5732 5730 5729 5728 5727 5726 5726 5725 5725 5725 5725 5725 5724 5723 5722 5720 5718 5717 5716 5714 5712 5709 5707 5704 5703
5688 5690 5693 5697 5709 5712 5707 5707 5714 5718 5719 5717 5717 5718 5719 5722 5727 5731 5733 5733 5733 5732 5732 5730 5729 5727 5726 5725 5724 5723 5723 5722 5722 5722 5722 5721 5721 5720 5719 5717 5716 5715 5713 5711 5709 5706 5704 5702 5700
5698 5694 5692 5698 5709 5707 5702 5704 5710 5714 5714 5713 5714 5716 5717 5721 5728 5730 5731 5731 5730 5729 5729 5728 5726 5725 5724 5722 5720 5719 5718 5718 5718 5718 5718 5718 5718 5718 5717 5715 5713 5712 5710 5708 5706 5704 5701 5698 5697
5697 5691 5691 5697 5707 5704 5698 5700 5708 5711 5712 5715 5715 5715 5718 5721 5724 5726 5728 5728 5727 5727 5727 5726 5725 5724 5723 5722 5720 5718 5716 5715 5715 5715 5715 5715 5715 5715 5714 5713 5711 5709 5708 5705 5704 5702 5698 5695 5694
5694 5690 5691 5692 5697 5699 5695 5692 5701 5709 5713 5715 5717 5719 5720 5721 5722 5723 5725 5725 5726 5726 5726 5726 5724 5723 5722 5720 5718 5716 5714 5713 5712 5712 5712 5712 5712 5712 5711 5710 5708 5706 5705 5703 5701 5700 5697 5693 5691
5688 5700 5699 5694 5686 5679 5687 5673 5692 5702 5706 5711 5714 5716 5719 5723 5725 5725 5725 5725 5726 5727 5727 5725 5724 5722 5720 5719 5717 5714 5711 5708 5709 5709 5709 5709 5709 5709 5708 5707 5706 5704 5702 5701 5699 5697 5696 5693 5689
5695 5702 5698 5692 5684 5677 5680 5673 5684 5698 5700 5709 5715 5719 5722 5724 5726 5726 5727 5728 5728 5727 5726 5724 5722 5720 5719 5717 5715 5713 5710 5709 5707 5707 5707 5706 5706 5706 5705 5704 5703 5701 5700 5698 5697 5695 5693 5691 5688
5701 5694 5688 5681 5675 5666 5675 5671 5678 5693 5705 5713 5719 5722 5724 5725 5726 5727 5728 5728 5726 5725 5724 5722 5720 5718 5717 5715 5714 5712 5710 5707 5705 5704 5703 5703 5703 5703 5703 5702 5700 5699 5697 5695 5694 5692 5691 5688 5686
5694 5677 5662 5660 5656 5661 5677 5674 5684 5709 5718 5721 5723 5723 5726 5726 5725 5724 5724 5724 5723 5723 5722 5721 5719 5717 5716 5714 5712 5711 5709 5707 5706 5704 5702 5701 5700 5700 5700 5699 5698 5697 5695 5693 5691 5689 5687 5685 5683
5687 5680 5662 5653 5652 5659 5674 5673 5695 5718 5724 5727 5727 5727 5726 5725 5725 5725 5725 5724 5723 5722 5721 5719 5718 5716 5714 5713 5712 5710 5709 5707 5705 5704 5702 5700 5699 5699 5698 5697 5696 5694 5692 5690 5688 5686 5684 5682 5680
5684 5678 5680 5666 5662 5657 5666 5681 5701 5718 5721 5723 5724 5723 5723 5724 5725 5725 5724 5724 5723 5722 5721 5720 5718 5716 5714 5712 5711 5709 5708 5707 5705 5704 5702 5700 5698 5697 5696 5695 5693 5691 5689 5687 5685 5683 5680 5679 5677
5694 5684 5671 5664 5654 5651 5665 5674 5683 5704 5711 5717 5718 5720 5722 5724 5724 5724 5723 5723 5722 5722 5722 5720 5718 5715 5714 5712 5710 5709 5707 5706 5704 5702 5700 5698 5697 5696 5694 5692 5690 5687 5686 5684 5682 5679 5677 5675 5673
5685 5681 5675 5665 5663 5654 5655 5671 5702 5706 5712 5714 5717 5720 5722 5722 5723 5723 5722 5722 5721 5720 5719 5717 5715 5713 5711 5710 5708 5707 5705 5704 5702 5700 5698 5697 5695 5693 5691 5689 5687 5684 5682 5680 5678 5675 5673 5671 5669
5695 5688 5678 5667 5662 5661 5658 5673 5712 5712 5715 5716 5717 5720 5722 5722 5722 5722 5720 5719 5717 5716 5715 5714 5713 5711 5709 5708 5706 5704 5702 5701 5699 5697 5696 5694 5692 5691 5689 5687 5684 5681 5679 5676 5674 5671 5669 5666 5664